TimeEET,TemperatureF,Dew PointF,Humidity,Sea Level PressureIn,VisibilityMPH,Wind Direction,Wind SpeedMPH,Gust SpeedMPH,PrecipitationIn,Events,Conditions,WindDirDegrees,DateUTC
12:20 AM,62.6,59.0,88,29.65,-9999.0,North,-9999.0,-,N/A,,Mostly Cloudy,0,2012-10-29 22:20:00
12:50 AM,62.6,59.0,88,29.65,-9999.0,North,-9999.0,-,N/A,,Scattered Clouds,0,2012-10-29 22:50:00
1:50 AM,62.6,57.2,82,29.65,-9999.0,North,-9999.0,-,N/A,,Scattered Clouds,0,2012-10-29 23:50:00
2:00 AM,63,58,77,29.65,6,SSW,9.2,,,,Scattered Clouds,210,2012-10-30 00:00:00
2:50 AM,62.6,57.2,82,29.62,-9999.0,North,-9999.0,-,N/A,,Scattered Clouds,0,2012-10-30 00:50:00
3:20 AM,62.6,57.2,82,29.62,-9999.0,North,-9999.0,-,N/A,,Scattered Clouds,0,2012-10-30 01:20:00
3:50 AM,62.6,57.2,82,29.62,6.2,Calm,Calm,-,N/A,,Scattered Clouds,0,2012-10-30 01:50:00
4:20 AM,62.6,57.2,82,29.62,-9999.0,North,-9999.0,-,N/A,,Scattered Clouds,0,2012-10-30 02:20:00
5:50 AM,62.6,57.2,82,29.62,-9999.0,North,-9999.0,-,N/A,,Scattered Clouds,0,2012-10-30 03:50:00
6:20 AM,62.6,57.2,82,29.62,-9999.0,North,-9999.0,-,N/A,,Scattered Clouds,0,2012-10-30 04:20:00
6:50 AM,60.8,57.2,88,29.65,-9999.0,North,-9999.0,-,N/A,,Scattered Clouds,0,2012-10-30 04:50:00
7:20 AM,60.8,57.2,88,29.65,-9999.0,North,-9999.0,-,N/A,,Scattered Clouds,0,2012-10-30 05:20:00
7:50 AM,60.8,51.8,72,29.65,5.0,West,11.5,-,N/A,Rain-Thunderstorm,Light Thunderstorms and Rain,260,2012-10-30 05:50:00
8:00 AM,62,51,59,29.67,5,West,11.5,,,Rain-Thunderstorm,Thunderstorms and Rain,260,2012-10-30 06:00:00
8:20 AM,55.4,53.6,94,29.71,-9999.0,North,-9999.0,-,N/A,Rain-Thunderstorm,Light Thunderstorms and Rain,0,2012-10-30 06:20:00
8:50 AM,60.8,55.4,82,29.71,-9999.0,North,-9999.0,-,N/A,,Scattered Clouds,0,2012-10-30 06:50:00
9:20 AM,62.6,55.4,77,29.71,-9999.0,North,-9999.0,-,N/A,,Scattered Clouds,0,2012-10-30 07:20:00
9:50 AM,62.6,55.4,77,29.71,-9999.0,North,-9999.0,-,N/A,,Partly Cloudy,0,2012-10-30 07:50:00
10:20 AM,64.4,55.4,73,29.71,-9999.0,North,-9999.0,-,N/A,,Partly Cloudy,0,2012-10-30 08:20:00
10:50 AM,66.2,57.2,73,29.74,-9999.0,North,-9999.0,-,N/A,,Scattered Clouds,0,2012-10-30 08:50:00
11:20 AM,68.0,57.2,68,29.74,-9999.0,North,-9999.0,-,N/A,,Scattered Clouds,0,2012-10-30 09:20:00
11:50 AM,68.0,55.4,64,29.74,-9999.0,North,-9999.0,-,N/A,,Partly Cloudy,0,2012-10-30 09:50:00
12:20 PM,68.0,55.4,64,29.74,-9999.0,North,-9999.0,-,N/A,,Partly Cloudy,0,2012-10-30 10:20:00
12:50 PM,69.8,55.4,60,29.77,-9999.0,North,-9999.0,-,N/A,,Partly Cloudy,0,2012-10-30 10:50:00
1:20 PM,69.8,55.4,60,29.77,-9999.0,North,-9999.0,-,N/A,,Partly Cloudy,0,2012-10-30 11:20:00
1:50 PM,68.0,44.6,43,29.80,-9999.0,North,-9999.0,-,N/A,,Partly Cloudy,0,2012-10-30 11:50:00
2:20 PM,68.0,44.6,43,29.80,-9999.0,North,-9999.0,-,N/A,,Partly Cloudy,0,2012-10-30 12:20:00
2:50 PM,68.0,46.4,46,29.83,-9999.0,North,-9999.0,-,N/A,,Partly Cloudy,0,2012-10-30 12:50:00
3:20 PM,68.0,46.4,46,29.83,-9999.0,North,-9999.0,-,N/A,,Partly Cloudy,0,2012-10-30 13:20:00
3:50 PM,66.2,44.6,46,29.83,-9999.0,North,-9999.0,-,N/A,,Partly Cloudy,0,2012-10-30 13:50:00
4:20 PM,66.2,44.6,46,29.83,-9999.0,North,-9999.0,-,N/A,,Partly Cloudy,0,2012-10-30 14:20:00
4:50 PM,64.4,44.6,49,29.86,-9999.0,North,-9999.0,-,N/A,,Partly Cloudy,0,2012-10-30 14:50:00
5:20 PM,64.4,44.6,49,29.86,-9999.0,North,-9999.0,-,N/A,,Partly Cloudy,0,2012-10-30 15:20:00
5:50 PM,62.6,44.6,52,29.86,-9999.0,North,-9999.0,-,N/A,,Partly Cloudy,0,2012-10-30 15:50:00
6:20 PM,59.0,44.6,59,29.86,-9999.0,North,-9999.0,-,N/A,,Partly Cloudy,0,2012-10-30 16:20:00
6:50 PM,57.2,42.8,59,29.89,-9999.0,North,-9999.0,-,N/A,,Scattered Clouds,0,2012-10-30 16:50:00
7:20 PM,55.4,42.8,63,29.89,-9999.0,North,-9999.0,-,N/A,,Scattered Clouds,0,2012-10-30 17:20:00
7:50 PM,55.4,42.8,63,29.92,-9999.0,North,-9999.0,-,N/A,,Partly Cloudy,0,2012-10-30 17:50:00
8:00 PM,55,43,55,29.94,6,NE,5.8,,,,Scattered Clouds,40,2012-10-30 18:00:00
8:20 PM,55.4,42.8,63,29.92,-9999.0,North,-9999.0,-,N/A,,Partly Cloudy,0,2012-10-30 18:20:00
8:50 PM,53.6,42.8,67,29.95,-9999.0,North,-9999.0,-,N/A,,Partly Cloudy,0,2012-10-30 18:50:00
9:20 PM,53.6,42.8,67,29.95,-9999.0,North,-9999.0,-,N/A,,Partly Cloudy,0,2012-10-30 19:20:00
9:50 PM,53.6,44.6,72,29.98,-9999.0,North,-9999.0,-,N/A,,Partly Cloudy,0,2012-10-30 19:50:00
10:20 PM,53.6,44.6,72,29.98,-9999.0,North,-9999.0,-,N/A,,Partly Cloudy,0,2012-10-30 20:20:00
10:50 PM,51.8,42.8,71,29.98,-9999.0,North,-9999.0,-,N/A,,Partly Cloudy,0,2012-10-30 20:50:00
11:20 PM,51.8,42.8,71,29.98,-9999.0,North,-9999.0,-,N/A,,Partly Cloudy,0,2012-10-30 21:20:00
11:50 PM,50.0,41.0,71,29.98,-9999.0,North,-9999.0,-,N/A,,Clear,0,2012-10-30 21:50:00